sat.trackr.live / text

‹ back to catalog

STARLINK-2682

NORAD 48440 · 2021-040N

PAYLOAD ACTIVE UNKNOWN

§ Identity

Operator
Country
US
Launch date
2021-05-09
Launch site
AFETR
Launch vehicle
Mass (kg)
RCS (m²)

Purposes: comms

External: N2YO · Heavens-Above · Gunter

§ Orbital elements

Epoch: 2026-05-25T03:56:29.598144Z

Period
94.01 min
Inclination
53.1584°
Eccentricity
0.0000993
Mean motion
15.31687830 rev/d
Perigee alt
470.1 km
Apogee alt
471.5 km
Semi-major
6,848.9 km
B*
-5.2077e-6
RAAN
182.4333°
Arg perigee
90.2413°
Mean anomaly
269.8702°
Rev number
27,839

§ Raw data

STARLINK-26821 48440U 21040N   26145.16423146 -.00000526  00000+0 -52077-5 0  99922 48440  53.1584 182.4333 0000993  90.2413 269.8702 15.31687830278397

JSON: /api/v1/satellites/48440 · /tle

For live sub-satellite position, see the globe view (requires WebGL).

§ Visibility from observer

Set your observer location to see the next 7 days of passes ≥ 10°. The values pass through the URL so the page stays shareable.

No JS? Fill the form by hand. The geolocation button needs JavaScript.